#timestamp,LO_Frequency,Hit,StdDev 
1665633615.0,286047001.0,N
1665633615.9,286047001.0,N
1665633635.8,286047000.3,N
1665633655.6,286047000.3,N
1665633675.4,286047001.7,N
1665633695.3,286047003.2,N
1665633715.1,286047003.3,N
1665633735.8,286046999.8,N
1665633755.7,286046995.0,N
1665633775.5,286046992.5,Y
1665633795.4,286046994.7,P
1665633815.2,286046995.4,N
1665633835.0,286046995.0,N
1665633835.9,286046995.0,N
1665633855.8,286046997.9,N
1665633875.6,286046998.7,N
1665633895.5,286047000.5,N
1665633915.3,286046997.6,N
1665633935.1,286046996.0,N
1665633955.9,286046995.2,N
1665633975.7,286046998.4,N
1665633995.5,286046997.3,N
1665634015.4,286046995.7,N
1665634035.2,286046996.3,N
1665634055.1,286046995.4,N
1665634056.0,286046995.4,N
1665634075.8,286046995.3,N
1665634095.6,286046999.6,N
1665634115.5,286046995.8,N
1665634135.3,286046997.5,N
1665634155.1,286046997.6,N
1665634175.9,286046995.0,N
1665634195.7,286046997.9,N
1665634215.6,286046999.0,N
1665634235.4,286046995.2,N
1665634255.2,286046995.8,N
1665634275.1,286046996.1,N
1665634276.0,286046996.1,N
1665634295.8,286046995.3,N
1665634315.6,286046996.3,N
1665634335.5,286046997.2,N
1665634355.3,286046995.6,N
1665634375.2,286046996.2,N
1665634395.9,286046995.3,Y
1665634415.7,286046999.0,P
1665634435.6,286046996.6,N
1665634455.4,286046997.6,N
1665634475.3,286046995.3,Y
1665634495.1,286046996.8,P
1665634496.0,286046996.8,P
1665634515.8,286046999.8,N
1665634535.7,286047004.3,Y
1665634555.5,286047005.9,P
1665634575.3,286047002.5,N
1665634595.2,286047002.2,N
1665634615.0,286047001.5,N
1665634615.9,286047001.5,N
1665634635.8,286047001.1,N
1665634655.6,286046998.1,N
1665634675.4,286046997.0,N
1665634695.3,286046997.1,N
1665634715.1,286046997.3,N
1665634735.8,286046999.5,N
1665634755.7,286046997.5,N
1665634775.5,286046997.3,N
1665634795.4,286046996.9,N
1665634815.2,286046995.0,N
1665634835.0,286046995.0,N
1665634835.9,286046995.0,N
1665634855.8,286046994.9,N
1665634875.6,286046993.4,N
1665634895.4,286046996.1,N
1665634915.3,286046997.8,N
1665634935.1,286046999.6,N
1665634955.9,286047000.9,N
1665634975.7,286047001.0,N
1665634995.5,286046998.7,N
1665635015.4,286047001.8,N
1665635035.2,286047003.9,N
1665635055.0,286047001.7,N
1665635056.0,286047001.7,N
1665635075.8,286047003.8,N
1665635095.6,286047001.6,N
1665635115.5,286047002.7,N
1665635135.3,286047001.5,N
1665635155.1,286047003.2,N
1665635175.9,286047001.3,N
1665635195.7,286047001.6,N
1665635215.6,286047006.0,N
1665635235.4,286047003.4,N
1665635255.2,286047001.7,N
1665635275.1,286046999.9,N
1665635276.0,286046999.9,N
1665635295.8,286046999.7,N
1665635315.6,286047000.4,N
1665635335.5,286047000.6,N
1665635355.3,286046998.8,N
1665635375.2,286046998.6,N
1665635395.9,286047001.0,N
1665635415.7,286047000.9,N
1665635435.6,286047001.2,N
1665635455.4,286046998.9,N
1665635475.2,286046999.8,N
1665635495.1,286047001.5,N
1665635496.0,286047001.5,N
1665635515.8,286047003.9,N
1665635535.7,286046998.7,N
1665635555.5,286046998.6,N
1665635575.3,286047000.0,N
1665635595.2,286046999.7,N
1665635615.0,286047000.2,N
1665635615.9,286047000.2,N
1665635635.8,286047002.0,N
1665635655.6,286047004.0,N
1665635675.4,286047005.5,Y
1665635695.3,286047003.9,P
1665635715.1,286047005.2,P
1665635735.8,286047009.2,P
1665635755.7,286047004.8,N
1665635775.5,286047003.8,N
1665635795.4,286047002.9,N
1665635815.2,286047006.0,N
1665635835.0,286047002.9,N
1665635835.9,286047002.9,N
1665635855.8,286047006.3,N
1665635875.6,286047008.9,Y
1665635895.4,286047002.4,P
1665635915.3,286047003.8,P
1665635935.1,286047002.2,N
1665635955.9,286047001.7,N
1665635975.7,286046998.9,N
1665635995.5,286047000.8,N
1665636015.4,286046999.8,N
1665636035.2,286046998.1,N
1665636055.0,286046999.8,N
1665636055.9,286046999.8,N
1665636075.8,286046998.5,N
1665636095.6,286047001.2,N
1665636115.5,286046998.8,N
1665636135.3,286046999.2,N
1665636155.1,286046996.8,N
1665636175.9,286046999.2,N
1665636195.7,286046999.6,N
1665636215.5,286047000.0,N
1665636235.4,286047000.4,N
1665636255.2,286047000.4,N
1665636275.1,286047004.0,N
1665636276.0,286047004.0,N
1665636295.8,286047003.5,N
1665636315.6,286046999.9,N
1665636335.5,286047001.5,N
1665636355.3,286047006.0,N
1665636375.1,286047003.0,N
1665636395.9,286047005.8,N
1665636415.7,286047004.4,N
1665636435.6,286047002.7,N
1665636455.4,286047000.3,N
1665636475.2,286047003.4,N
1665636495.1,286047003.3,N
1665636496.0,286047003.3,N
1665636515.8,286047001.4,N
1665636535.7,286046998.3,N
1665636555.5,286046996.8,N
1665636575.3,286046997.5,N
1665636595.2,286046997.8,N
1665636615.0,286046997.3,N
1665636615.9,286046997.3,N
1665636635.8,286046997.2,N
1665636655.6,286046998.9,N
1665636675.4,286046998.5,N
1665636695.3,286046998.4,N
1665636715.1,286046999.9,N
1665636735.8,286047004.2,N
1665636755.7,286047004.0,N
1665636775.5,286047002.7,N
1665636795.4,286046999.1,N
1665636815.2,286047011.9,Y
1665636835.0,286046999.1,P
1665636835.9,286046999.1,N
1665636855.8,286046996.5,P
1665636875.6,286046999.5,N
1665636895.4,286047001.2,N
1665636915.3,286046997.1,N
1665636935.1,286046997.6,N
1665636955.9,286046995.1,Y
1665636975.7,286046995.0,P
1665636995.5,286046997.9,N
1665637015.4,286046997.8,N
1665637035.2,286046997.8,N
1665637055.0,286046995.3,Y
1665637056.0,286046995.3,P
1665637075.8,286046998.7,N
1665637095.6,286047000.6,N
1665637115.5,286047000.5,N
1665637135.3,286047000.3,N
1665637155.1,286047000.1,N
1665637175.9,286046999.9,N
1665637195.7,286046999.8,N
